Home   Weather   Fort Wayne   Past weeks

Flag for USA Past Weather in Fort Wayne, Indiana, USA — Yesterday and Last 2 Weeks

Now
74 °F

Overcast.


Feels Like: 74 °F
Forecast: 70 / 81 °F
Wind: 3 mph from Southeast

Location: Fort Wayne International Airport

Current Time: Jul 26, 2017 at 10:56:53 pm

Latest Report: Jul 26, 2017 at 9:54 pm


Visibility: 10 mi

Pressure: 30.02 "Hg

Humidity: 79%

Dew Point: 67 °F

Location of Fort WayneLocation

Past Weather in Fort Wayne — Graph

°F

Fort Wayne Temperature Yesterday

Maximum temperature yesterday: 78 °F (at 3:54 pm)
Minimum temperature yesterday: 56 °F (at 6:54 am)
Average temperature yesterday: 68 °F

High & Low Weather Summary for the Past Weeks

 TemperatureHumidityPressure
High90 °F (Jul 18, 5:54 pm)94% (Jul 13, 6:54 am)30.24 "Hg (Jul 13, 6:54 am)
Low56 °F (Jul 25, 6:54 am)46% (Jul 25, 11:54 am)29.75 "Hg (Jul 23, 4:54 pm)
Average74 °F76%30.00 "Hg
* Reported Jul 11 8:54 pm — Jul 26 8:54 pm, Fort Wayne. Weather by CustomWeather, © 2017

Note: Actual official high and low records may vary slightly from our data, if they occured in-between our weather recording intervals... More about our weather records

Advertising

Fort Wayne Weather History for the Previous 24 Hours

Scroll right to see more
 ConditionsComfort  
Time TempWeatherWind HumidityBarometerVisibility
8:54 pm
Wed, Jul 26
77 °FOvercast.3 mph71%30.01 "Hg10 mi
7:54 pm77 °FPartly sunny.3 mph74%30.01 "Hg10 mi
6:54 pm80 °FBroken clouds.3 mph60%30.02 "Hg10 mi
5:54 pm81 °FBroken clouds.5 mph56%30.03 "Hg10 mi
4:54 pm81 °FPartly sunny.6 mph54%30.04 "Hg10 mi
3:54 pm81 °FBroken clouds.7 mph56%30.06 "Hg10 mi
2:54 pm80 °FPartly sunny.No wind60%30.09 "Hg10 mi
1:54 pm79 °FPartly sunny.8 mph58%30.09 "Hg10 mi
12:54 pm77 °FPartly sunny.3 mph62%30.11 "Hg10 mi
11:54 am75 °FPartly sunny.7 mph66%30.14 "Hg10 mi
10:54 am74 °FBroken clouds.7 mph69%30.12 "Hg10 mi
9:54 am70 °FPartly sunny.7 mph76%30.14 "Hg10 mi
8:54 am68 °FPartly sunny.7 mph78%30.16 "Hg10 mi
7:54 am63 °FPassing clouds.3 mph87%30.15 "Hg10 mi
6:54 am60 °FPassing clouds.No wind90%30.16 "Hg10 mi
5:54 am59 °FPassing clouds.5 mph93%30.14 "Hg10 mi
4:54 am60 °FPassing clouds.No wind93%30.15 "Hg10 mi
3:54 am61 °FPassing clouds.3 mph90%30.17 "Hg10 mi
2:54 am63 °FPassing clouds.3 mph87%30.16 "Hg10 mi
1:54 am62 °FPassing clouds.5 mph86%30.16 "Hg10 mi
12:54 am64 °FPassing clouds.6 mph84%30.17 "Hg10 mi
11:54 pm
Tue, Jul 25
65 °FPassing clouds.3 mph81%30.18 "Hg10 mi
10:54 pm66 °FPassing clouds.5 mph78%30.16 "Hg10 mi
Weather by CustomWeather, © 2017

See weather overviewHow to use our weather pages